Terminal Aerodrome Forecast
Issued by NWS

Home | Current Version | Previous Version | Text Only | Print | Product List | Glossary On
Versions: 1 2 3 4 5 6 7 8 9 10 11 12 13 14 15 16 17 18 19 20 21 22 23 24
000
FTUS42 KMLB 252320
TAFTIX
TAF
KTIX 252320Z 2600/2624 16010KT P6SM SCT060
     FM260400 25003KT P6SM FEW050
     FM261400 30008KT P6SM SCT040
     FM262000 02012KT P6SM FEW040 SCT060
      AMD NOT SKED 2602/2612=

USA.gov is the U.S. government's official web portal to all federal, state and local government web resources and services.